Tracking 34410 objects as of 16-Jun-2026
HD Live streaming from Space Station
objects crossing your sky now

CZ-6A DEB

Track CZ-6A DEB now!
10-day predictions


NORAD ID: 54329
Int'l Code: 2022-151BY
Perigee: 550.0 km
Apogee: 674.7 km
Inclination: 98.6 °
Period: 96.8 minutes
Semi major axis: 6983 km
RCS: Unknown
Launch date: November 11, 2022
Source: People's Republic of China (PRC)
Launch site: Taiyaun Space Center, China (TSC)

Note: This is SATELLITE DEBRIS
Your satellite tracking list
Your tracking list is empty




NASA's NSSDC Master Catalog

Two Line Element Set (TLE):
1 54329U 22151BY  26167.19441897  .00012303  00000-0  12608-2 0  9997
2 54329  98.6343 267.1981 0089244 109.3081 251.7811 14.87674972191574
Source of the keplerian elements: AFSPC